This is the latest recevied weather packets stored in our database for station/object K8RLH. If no packets are shown the sender has not sent any weather packets the latest 10 day(s).
| Time | Temp. | Humidity | Pressure | Rain* | Wind** | Luminosity | Snow |
|---|---|---|---|---|---|---|---|
| 1777923416 | 24.44° C | 32% | 1016.8 hPa | 0 mm | - | 67 W/m² | - |
| 1777923114 | 24.44° C | 33% | 1017 hPa | 0 mm | - | 64 W/m² | - |
| 1777922812 | 24.44° C | 32% | 1017 hPa | 0 mm | - | 102 W/m² | - |
| 1777922510 | 24.44° C | 31% | 1017.2 hPa | 0 mm | - | 117 W/m² | - |
| 1777922208 | 23.89° C | 31% | 1017.2 hPa | 0 mm | - | 51 W/m² | - |
| 1777921904 | 24.44° C | 31% | 1017.2 hPa | 0 mm | - | 143 W/m² | - |
| 1777921600 | 24.44° C | 31% | 1017.2 hPa | 0 mm | - | 58 W/m² | - |
| 1777921297 | 23.89° C | 33% | 1017.3 hPa | 0 mm | - | 72 W/m² | - |
| 1777920993 | 23.89° C | 33% | 1017.5 hPa | 0 mm | - | 560 W/m² | - |
| 1777920690 | 23.89° C | 33% | 1017.6 hPa | 0 mm | - | 61 W/m² | - |
| 1777920386 | 23.89° C | 32% | 1017.7 hPa | 0 mm | - | 54 W/m² | - |
| 1777920081 | 23.89° C | 34% | 1017.7 hPa | 0 mm | - | 54 W/m² | - |
| 1777919779 | 23.33° C | 32% | 1017.7 hPa | 0 mm | - | 59 W/m² | - |
| 1777919476 | 23.33° C | 32% | 1017.9 hPa | 0 mm | - | 61 W/m² | - |
| 1777919174 | 23.33° C | 29% | 1017.9 hPa | 0 mm | - | 70 W/m² | - |
| 1777918871 | 23.89° C | 30% | 1017.9 hPa | 0 mm | - | 91 W/m² | - |
| 1777918568 | 23.33° C | 32% | 1017.9 hPa | 0 mm | - | 65 W/m² | - |
| 1777918266 | 23.33° C | 33% | 1018.1 hPa | 0 mm | - | 92 W/m² | - |
| 1777917964 | 23.33° C | 32% | 1018.2 hPa | 0 mm | - | 59 W/m² | - |
| 1777917663 | 23.33° C | 33% | 1018.3 hPa | 0 mm | - | 70 W/m² | - |
| 1777917360 | 23.33° C | 34% | 1018.3 hPa | 0 mm | - | 61 W/m² | - |
| 1777917056 | 22.78° C | 36% | 1018.2 hPa | 0 mm | - | 64 W/m² | - |
| 1777916755 | 22.78° C | 35% | 1018.3 hPa | 0 mm | - | 53 W/m² | - |
| 1777916451 | 23.33° C | 32% | 1018.4 hPa | 0 mm | - | 50 W/m² | - |
| 1777916148 | 22.78° C | 28% | 1018.3 hPa | 0 mm | - | 55 W/m² | - |
* Rain latest hour (hover to see other rain measurements)
** Current wind speed in m/s (hover to see current wind gust speed)